Flag for Israel Weather past 2 weeks in Safed, Israel

Now
79 °F

Passing clouds.


Feels Like: 81 °F
Forecast: 64 / 76 °F
Wind: 7 mph from Southeast

Location: Beirut Airport

Current Time: Sep 19, 2014 at 3:48:10 AM

Latest Report: Sep 19, 2014 at 3:00 AM


Visibility: N/A

Pressure: 29.98 "Hg

Humidity: 61%

Dew point: 64 °F

Location of SafedLocation

Historic Weather in Safed — Graph

°F

Safed temperature yesterday

Maximum temperature yesterday: 86 °F (at 12:00 PM)
Minimum temperature yesterday: 79 °F (at 6:00 AM)
Average temperature yesterday: 82 °F

Past Weeks' High & Low Weather Summary

 TemperatureHumidityPressure
High88 °F (Sep 6, 2:00 PM)79% (Sep 4, 10:00 PM)29.98 "Hg (Sep 4, 10:00 PM)
Low77 °F (Sep 8, 5:00 AM)42% (Sep 9, 8:00 AM)29.74 "Hg (Sep 5, 6:00 PM)
Average82 °F60%29.88 "Hg
* Reported Sep 4 2:00 AM — Sep 19 2:00 AM, Safed, Weather by CustomWeather, © 2014

Note: Actual official high and low records may vary slightly from our data, if they occured in-between our weather recording intervals... More about our weather records

Advertising

Safed weather history for previous 24 hours

 ConditionsComfort  
Time TempWeatherWind HumidityBarometerVisibility
2:00 AM
Sep 19
79 °FPassing clouds.6 mph61%29.98 "HgN/A
1:00 AM79 °FPassing clouds.6 mph65%29.98 "HgN/A
12:00 AM79 °FPassing clouds.5 mph61%29.98 "HgN/A
11:00 PM
Sep 18
79 °FPassing clouds.6 mph61%29.98 "HgN/A
10:00 PM81 °FPassing clouds.6 mph62%N/AN/A
9:00 PM81 °FPassing clouds.6 mph58%29.95 "HgN/A
8:00 PM81 °FPassing clouds.6 mph54%29.95 "HgN/A
7:00 PM81 °FScattered clouds.7 mph58%29.95 "HgN/A
6:00 PM84 °FScattered clouds.9 mph58%29.92 "HgN/A
5:00 PM84 °FScattered clouds.10 mph58%29.92 "HgN/A
4:00 PM84 °FScattered clouds.10 mph58%29.95 "HgN/A
3:00 PM86 °FPartly sunny.10 mph55%29.95 "HgN/A
2:00 PM86 °FPartly sunny.13 mph52%29.95 "HgN/A
1:00 PM86 °FPartly sunny.12 mph52%29.95 "HgN/A
12:00 PM86 °FPartly sunny.12 mph55%29.95 "HgN/A
11:00 AM84 °FPartly sunny.14 mph58%29.92 "HgN/A
10:00 AM84 °FPartly sunny.12 mph55%29.92 "HgN/A
9:00 AM82 °FPartly sunny.10 mph58%29.92 "HgN/A
8:00 AM79 °FPartly sunny.7 mph70%29.89 "HgN/A
7:00 AM79 °FPassing clouds.8 mph70%29.89 "HgN/A
6:00 AM79 °FPassing clouds.8 mph70%29.89 "HgN/A
5:00 AM81 °FPassing clouds.7 mph66%29.86 "HgN/A
4:00 AM81 °FPassing clouds.6 mph66%29.86 "HgN/A
3:00 AM81 °FPassing clouds.3 mph66%29.86 "HgN/A
Weather by CustomWeather, © 2014

See weather overviewHow to use our weather pages